Location: Zapote
(9.9191°N, 84.0597°W)
Time: 13:14:39
(UTC-06:00)

Hubble Space Telescope - Pass Details

Date: 04 March 2020
Orbit: 536 x 540 km, 28.5° (Epoch: 10 April)

Event Time Altitude Azimuth Distance (km) Brightness Sun altitude
Rises 18:41:18 0° 299° (WNW) 2,667 5.4 -14.2°
Reaches altitude 10° 18:43:33 10° 299° (WNW) 1,778 4.3 -14.7°
Maximum altitude 18:47:41 88° 31° (NNE) 537 0.7 -15.7°
Enters shadow 18:49:48 28° 117° (ESE) 1,028 1.7 -16.3°
